Location: ???????????
(54.6970°N, 39.1477°E)
Time: 13:47:44
(UTC+00:00)

Cosmos 2344 - Pass Details

Date: 19 May 2025
Orbit: 1200 x 3042 km, 63.3° (Epoch: 20 June)

Event Time Altitude Azimuth Distance (km) Brightness Sun altitude
Rises 19:16:32 0° 251° (WSW) 4,224 6.5 -10.8°
Reaches altitude 10° 19:19:23 10° 255° (WSW) 3,183 5.9 -11.0°
Maximum altitude 19:26:33 59° 335° (NNW) 1,386 4.2 -11.5°
Drops below altitude 10° 19:34:13 10° 55° (NE) 3,402 5.9 -12.0°
Sets 19:37:23 0° 60° (ENE) 4,539 6.6 -12.2°
